EW6618 Weather Reports


time (UTC)temp
F
wind
direction
speed
knots
gust
knots
rain 1hr
in
rain 24hr
in
rain mn
in
humidity
%
barometer
mb
20260507050406 60 250 2.6 5.2 0.00 0.00 0.00 90 1017.7
20260507045418 59 254 3.5 7.0 0.00 0.00 0.00 90 1017.8
20260507043237 60 294 4.3 7.8 0.00 0.00 0.00 89 1017.7
20260507042225 60 247 6.1 9.6 0.00 0.00 0.00 89 1017.7
20260507041221 60 306 7.0 9.6 0.00 0.00 0.00 89 1017.7
20260507040152 61 238 7.0 11.3 0.00 0.00 0.00 88 1017.6
20260507034015 61 336 7.0 10.4 0.00 0.00 0.00 88 1017.3
20260507033011 61 304 7.8 11.3 0.00 0.00 0.00 88 1017.3
20260507032001 61 281 7.8 11.3 0.00 0.00 0.00 87 1017.3
20260507031002 61 293 7.8 12.2 0.00 0.00 0.00 87 1017.1
20260507025949 61 285 7.0 13.0 0.00 0.00 0.00 87 1017.1
20260507025008 61 283 7.8 13.0 0.00 0.00 0.00 86 1017.1
20260507022847 62 289 7.8 13.0 0.00 0.00 0.00 84 1016.8
20260507021849 62 271 7.0 10.4 0.00 0.00 0.00 83 1016.8
20260507020836 63 242 6.1 10.4 0.00 0.00 0.00 83 1016.6
20260507012432 63 342 7.8 13.0 0.00 0.00 0.00 82 1016.6
20260507011440 64 219 7.8 11.3 0.00 0.00 0.00 82 1016.7
20260507010434 64 269 7.8 11.3 0.00 0.00 0.00 82 1016.6
20260507005404 64 259 7.8 12.2 0.00 0.00 0.00 81 1016.5
20260507004409 64 232 7.8 12.2 0.00 0.00 0.00 81 1016.5
20260507002253 64 274 7.8 13.0 0.00 0.00 0.00 80 1016.7
20260507001254 64 293 7.8 13.0 0.00 0.00 0.00 79 1016.7
20260506234020 66 252 7.0 11.3 0.00 0.00 0.00 78 1016.6
20260506233030 66 274 7.0 11.3 0.00 0.00 0.00 78 1016.6
20260506232005 66 295 7.0 11.3 0.00 0.00 0.00 77 1016.6
20260506230957 67 304 7.0 10.4 0.00 0.00 0.00 76 1016.7
20260506225950 67 307 7.0 11.3 0.00 0.00 0.00 76 1016.8
20260506224936 67 257 7.0 11.3 0.00 0.00 0.00 75 1016.9
20260506221658 67 230 6.1 9.6 0.00 0.00 0.00 75 1017.4
20260506220702 67 247 6.1 9.6 0.00 0.00 0.00 76 1017.6
20260506215725 67 250 6.1 9.6 0.00 0.00 0.00 76 1017.6
20260506214659 67 253 6.1 9.6 0.00 0.00 0.00 75 1017.7
20260506213625 67 308 6.1 8.7 0.00 0.00 0.00 74 1017.9
20260506212612 68 224 5.2 9.6 0.00 0.00 0.00 74 1017.9
20260506211538 67 354 5.2 9.6 0.00 0.00 0.00 74 1018.0
20260506210547 67 356 5.2 9.6 0.00 0.00 0.00 75 1018.0
20260506205552 67 259 5.2 8.7 0.00 0.00 0.00 73 1018.1
20260506204559 67 245 5.2 8.7 0.00 0.00 0.00 74 1018.2
20260506203537 67 241 6.1 8.7 0.00 0.00 0.00 73 1018.2
20260506202534 67 299 5.2 8.7 0.00 0.00 0.00 74 1018.2
20260506201501 67 321 5.2 7.8 0.00 0.00 0.00 73 1018.4
20260506200441 67 238 5.2 9.6 0.00 0.00 0.00 73 1018.5
20260506195424 67 207 5.2 9.6 0.00 0.00 0.00 74 1018.5
20260506194359 68 227 5.2 8.7 0.00 0.00 0.00 73 1018.5
20260506193423 68 274 5.2 8.7 0.00 0.00 0.00 73 1018.7
20260506192412 68 318 5.2 7.8 0.00 0.00 0.00 72 1018.7
20260506191411 67 248 5.2 7.8 0.00 0.00 0.00 73 1018.9
20260506190435 67 219 5.2 8.7 0.00 0.00 0.00 72 1018.9
20260506185402 67 135 5.2 8.7 0.00 0.00 0.00 75 1018.9
20260506184422 67 9 5.2 7.8 0.00 0.00 0.00 75 1018.9
20260506182309 67 262 4.3 7.8 0.00 0.00 0.00 75 1019.0
20260506181334 66 298 4.3 7.0 0.00 0.00 0.00 75 1019.1
20260506180336 66 235 3.5 7.0 0.00 0.00 0.00 75 1019.1
20260506174149 65 218 3.5 6.1 0.00 0.00 0.00 76 1019.1
20260506173204 65 239 3.5 6.1 0.00 0.00 0.00 77 1019.0
20260506172210 64 293 3.5 6.1 0.00 0.00 0.00 77 1019.0
20260506171207 64 321 3.5 6.1 0.00 0.00 0.00 77 1018.9
20260506170206 64 259 3.5 6.1 0.00 0.00 0.00 76 1018.9
20260506165226 64 331 2.6 5.2 0.00 0.00 0.00 75 1018.8
20260506164242 64 30 2.6 4.3 0.00 0.00 0.00 77 1018.8
20260506162208 65 241 2.6 4.3 0.00 0.00 0.00 76 1018.8
20260506161134 66 258 0.9 3.5 0.00 0.00 0.00 75 1018.9
20260506160157 66 262 0.9 3.5 0.00 0.00 0.00 75 1018.8
20260506155210 66 352 0.9 2.6 0.00 0.00 0.00 76 1018.8
20260506154224 65 179 0.9 1.7 0.00 0.00 0.00 76 1018.8
20260506153236 64 100 0.0 0.9 0.00 0.00 0.00 77 1018.8
20260506152248 64 126 0.0 3.5 0.00 0.00 0.00 78 1018.7
20260506151241 63 239 0.0 3.5 0.00 0.00 0.00 80 1018.9
20260506150227 62 98 0.0 2.6 0.00 0.00 0.00 82 1018.9
20260506145227 61 67 0.9 3.5 0.00 0.00 0.00 83 1018.9
20260506144219 60 70 0.9 2.6 0.00 0.00 0.00 84 1018.8
20260506143205 59 92 0.0 1.7 0.00 0.00 0.00 85 1018.7
20260506142142 58 84 0.9 2.6 0.00 0.00 0.00 87 1018.7
20260506141144 58 80 0.9 2.6 0.00 0.00 0.00 88 1018.6
20260506140159 57 78 0.9 2.6 0.00 0.00 0.00 88 1018.5
20260506135152 56 70 0.0 1.7 0.00 0.00 0.00 88 1018.5
20260506133047 56 79 0.9 2.6 0.00 0.00 0.00 88 1018.3
20260506130916 56 72 0.9 1.7 0.00 0.00 0.00 88 1018.3
20260506125855 56 73 0.0 1.7 0.00 0.00 0.00 88 1018.0
20260506124825 56 84 0.0 0.0 0.00 0.00 0.00 87 1017.9
20260506123826 56 78 0.0 0.9 0.00 0.00 0.00 87 1018.0
20260506122801 56 79 0.0 1.7 0.00 0.00 0.00 87 1017.7
20260506121729 56 75 0.0 1.7 0.00 0.00 0.00 87 1017.7
20260506120711 56 86 0.0 0.9 0.00 0.00 0.00 86 1017.8
20260506115723 56 84 0.0 0.9 0.00 0.00 0.00 86 1017.7
20260506114737 57 65 0.0 0.0 0.00 0.00 0.00 86 1017.6
20260506113707 57 85 0.0 1.7 0.00 0.00 0.00 86 1017.6
20260506111555 57 108 0.0 1.7 0.00 0.00 0.00 88 1017.5
20260506110555 56 104 0.0 0.0 0.00 0.00 0.00 88 1017.5
20260506105543 57 104 0.0 0.0 0.00 0.00 0.00 87 1017.6
20260506104513 57 104 0.0 0.0 0.00 0.00 0.00 87 1017.6
20260506100048 58 104 0.0 0.0 0.00 0.00 0.00 88 1017.5
20260506095043 58 104 0.0 0.0 0.00 0.00 0.00 88 1017.6
20260506094106 58 104 0.0 0.0 0.00 0.00 0.00 88 1017.6
20260506093058 58 128 0.0 0.0 0.00 0.00 0.00 88 1017.6
20260506090953 59 95 0.0 0.0 0.00 0.00 0.00 88 1017.7
20260506084831 59 108 0.0 0.0 0.00 0.00 0.00 88 1017.9
20260506083757 59 101 0.0 2.6 0.00 0.00 0.00 87 1018.0
20260506082733 59 141 0.0 2.6 0.00 0.00 0.00 88 1018.0
20260506081701 59 105 0.9 4.3 0.00 0.00 0.00 87 1018.0
20260506080718 59 150 0.9 4.3 0.00 0.00 0.00 87 1018.0
20260506072603 59 153 0.9 2.6 0.00 0.00 0.00 86 1018.0
20260506070423 59 139 0.9 5.2 0.00 0.00 0.00 86 1017.9
20260506062325 60 75 0.9 3.5 0.00 0.00 0.00 87 1017.5
20260506061255 60 117 0.9 2.6 0.00 0.00 0.00 87 1017.4
20260506060228 59 141 0.0 2.6 0.00 0.00 0.00 86 1017.5